This demonstration page uses our WeatherBlox Daily Observations layout. Learn more.

Left ArrowRight Arrow

40.92945, -100.16068

Hourly Observations for November 5, 2015

Temp ( °F °C ) Dew Point ( °F °C ) Humidity (%) Winds ( mph kmh ) Pressure ( in mb ) Visibility ( mi km ) Precip ( " mm )
12:15 am 00:15 Clear 56 13.5 55 12.7 95 95 SE 7 11 29.65 1004 7 11 N/A
12:35 am 00:35 Mostly Cloudy 57 13.9 55 13 94 94 SSE 7 11 29.65 1004 7 11 N/A
12:55 am 00:55 Mostly Cloudy 56 13.1 54 12.3 95 95 N N/A 29.68 1005 7 11 N/A
1:15 am 01:15 Mostly Cloudy 55 12.5 53 11.6 94 94 S 5 7 29.68 1005 7 11 N/A
1:35 am 01:35 Cloudy 56 13.2 55 12.5 96 96 SSW 7 11 29.68 1005 10 16 N/A
1:55 am 01:55 Cloudy 56 13.5 55 12.7 95 95 SSW 6 9 29.65 1004 10 16 N/A
2:15 am 02:15 Cloudy 56 13.3 55 12.6 96 96 S 7 11 29.68 1005 10 16 N/A
2:35 am 02:35 Cloudy 56 13.1 54 12.4 96 96 SSW 7 11 29.68 1005 10 16 N/A
2:55 am 02:55 Cloudy 55 13 54 12.2 95 95 SW 8 13 29.68 1005 10 16 N/A
3:15 am 03:15 Cloudy 55 13 54 12.2 95 95 SSW 9 15 29.68 1005 10 16 N/A
3:35 am 03:35 Cloudy 56 13.1 54 12.3 95 95 SW 6 9 29.68 1005 10 16 N/A
3:55 am 03:55 Cloudy 53 11.4 51 10.3 93 93 WNW 8 13 29.68 1005 10 16 N/A
4:15 am 04:15 Cloudy 51 10.4 49 9.6 95 95 WNW 10 17 29.71 1006 10 16 N/A
4:35 am 04:35 Cloudy 49 9.6 48 8.8 95 95 WNW 9 15 29.71 1006 10 16 N/A
4:55 am 04:55 Cloudy 49 9.5 47 8.6 94 94 W 8 13 29.71 1006 10 16 N/A
5:15 am 05:15 Cloudy 49 9.5 47 8.6 94 94 WNW 7 11 29.71 1006 10 16 N/A
5:35 am 05:35 Cloudy 49 9.6 48 8.9 95 95 NW 8 13 29.71 1006 7 11 N/A
5:55 am 05:55 Cloudy 48 9 47 8.2 95 95 NNW 13 20 29.71 1006 7 11 N/A
6:15 am 06:15 Cloudy with Rain 47 8.5 46 7.6 94 94 NW 9 15 29.71 1006 3 5 N/A
6:35 am 06:35 Cloudy with Drizzle 47 8.2 46 7.5 95 95 NNW 6 9 29.71 1006 4 6 N/A
6:55 am 06:55 Cloudy 46 8 45 7.3 95 95 N 7 11 29.71 1006 10 16 N/A
7:15 am 07:15 Cloudy 47 8.1 46 7.5 96 96 NNW 7 11 29.71 1006 10 16 N/A
7:35 am 07:35 Cloudy 47 8.2 46 7.5 95 95 NW 7 11 29.74 1007 10 16 N/A
7:55 am 07:55 Cloudy with Drizzle 47 8.1 45 7.3 95 95 NNW 6 9 29.74 1007 5 8 N/A
8:15 am 08:15 Cloudy with Mist and Fog 47 8.1 45 7.3 95 95 NW 8 13 29.77 1008 3 4 N/A
8:35 am 08:35 Cloudy with Drizzle 46 7.6 44 6.8 95 95 N 12 19 29.77 1008 3 4 0.01 0.25
8:55 am 08:55 Cloudy with Drizzle 46 7.6 45 7 96 96 NNW 12 19 29.80 1009 3 4 0.02 0.51
9:15 am 09:15 Cloudy with Drizzle 46 7.7 45 7 95 95 NNW 17 28 29.85 1011 2 3 0.01 0.25
9:35 am 09:35 Cloudy with Mist and Fog 46 7.6 44 6.8 95 95 NNW 13 20 29.85 1011 5 8 0.01 0.25
9:55 am 09:55 Cloudy with Mist and Fog 46 7.6 44 6.8 95 95 NNW 12 19 29.85 1011 4 6 0.01 0.25
10:15 am 10:15 Cloudy with Mist and Fog 46 7.5 44 6.5 93 93 NNW 18 30 29.88 1012 5 8 N/A
10:35 am 10:35 Cloudy 46 8 44 6.5 90 90 NNW 16 26 29.88 1012 10 16 N/A
10:55 am 10:55 Cloudy 46 7.6 42 5.7 88 88 NNW 15 24 29.88 1012 10 16 N/A
11:15 am 11:15 Cloudy 46 8 43 6.1 88 88 NW 16 26 29.91 1013 10 16 N/A
11:35 am 11:35 Cloudy 46 7.6 43 6 90 90 NW 20 31 29.91 1013 10 16 N/A
11:55 am 11:55 Mostly Cloudy 47 8.3 42 5.8 84 84 NNW 15 24 29.91 1013 10 16 N/A
12:15 pm 12:15 Cloudy 47 8.4 42 5.6 83 83 NNW 14 22 29.91 1013 10 16 N/A
12:35 pm 12:35 Cloudy 47 8.5 42 5.5 82 82 NNW 16 26 29.88 1012 10 16 N/A
12:55 pm 12:55 Cloudy 48 8.7 41 4.9 77 77 NNW 15 24 29.85 1011 10 16 N/A
1:15 pm 13:15 Cloudy 48 9.1 42 5.4 78 78 NW 16 26 29.85 1011 10 16 N/A
1:35 pm 13:35 Mostly Cloudy 49 9.6 42 5.3 75 75 NNW 17 28 29.85 1011 10 16 N/A
1:55 pm 13:55 Mostly Cloudy 48 9.1 41 4.8 75 75 NNW 15 24 29.85 1011 10 16 N/A
2:15 pm 14:15 Cloudy 49 9.4 41 4.8 73 73 NNW 14 22 29.88 1012 10 16 N/A
2:35 pm 14:35 Mostly Cloudy 48 9.1 40 4.3 72 72 NW 17 28 29.88 1012 10 16 N/A
2:55 pm 14:55 Cloudy 47 8.6 40 4.2 74 74 NW 16 26 29.88 1012 10 16 N/A
3:15 pm 15:15 Mostly Cloudy 47 8.5 39 3.8 73 73 NNW 13 20 29.88 1012 10 16 N/A
3:35 pm 15:35 Mostly Cloudy 48 8.7 39 4.1 73 73 NNW 13 20 29.94 1014 10 16 N/A
3:55 pm 15:55 Mostly Cloudy 47 8.5 39 3.7 72 72 NNW 10 17 29.94 1014 10 16 N/A
4:15 pm 16:15 Cloudy 47 8.3 39 3.9 74 74 NW 8 13 29.94 1014 10 16 N/A
4:35 pm 16:35 Cloudy 47 8.2 39 4 75 75 NW 6 9 29.97 1015 10 16 N/A
4:55 pm 16:55 Cloudy 46 7.8 39 4 77 77 NW 3 6 29.97 1015 10 16 N/A
5:15 pm 17:15 Cloudy 46 7.6 40 4.5 81 81 WNW 3 6 29.97 1015 10 16 N/A
5:35 pm 17:35 Cloudy 46 7.5 40 4.5 81 81 N N/A 29.97 1015 10 16 N/A
5:55 pm 17:55 Cloudy 45 7.3 40 4.5 83 83 W 3 6 30.00 1016 10 16 N/A
6:15 pm 18:15 Mostly Cloudy 45 7 40 4.3 83 83 N N/A 30.00 1016 10 16 N/A
6:35 pm 18:35 Partly Cloudy 44 6.6 40 4.3 85 85 W 5 7 30.00 1016 10 16 N/A
6:55 pm 18:55 Clear 44 6.5 39 4 84 84 N N/A 30.00 1016 10 16 N/A
7:15 pm 19:15 Clear 43 6.3 39 3.9 85 85 SW 3 6 30.03 1017 10 16 N/A
7:35 pm 19:35 Clear 42 5.5 39 3.7 88 88 SW 5 7 30.03 1017 10 16 N/A
7:55 pm 19:55 Clear 41 4.8 38 3.1 89 89 WSW 3 6 30.03 1017 10 16 N/A
8:15 pm 20:15 Clear 38 3.5 36 2 90 90 WSW 6 9 30.03 1017 10 16 N/A
8:35 pm 20:35 Clear 38 3.5 36 2 90 90 WSW 6 9 30.06 1018 10 16 N/A
8:55 pm 20:55 Clear 38 3.2 36 2 92 92 WSW 7 11 30.09 1019 10 16 N/A
9:15 pm 21:15 Clear 38 3.2 36 2 92 92 WSW 5 7 30.09 1019 10 16 N/A
9:35 pm 21:35 Clear 37 3 35 1.6 91 91 WSW 3 6 30.09 1019 10 16 N/A
9:55 pm 21:55 Clear 37 2.6 35 1.5 93 93 SW 5 7 30.12 1020 10 16 N/A
10:15 pm 22:15 Clear 37 2.6 35 1.5 93 93 WSW 3 6 30.12 1020 10 16 N/A
10:35 pm 22:35 Clear 38 3.2 36 2 92 92 W 5 7 30.12 1020 10 16 N/A
10:55 pm 22:55 Clear 37 2.9 35 1.6 91 91 W 5 7 30.12 1020 10 16 N/A
11:15 pm 23:15 Clear 34 1.1 32 0.1 93 93 NW 3 6 30.12 1020 10 16 N/A
11:35 pm 23:35 Clear 33 0.7 32 undefined 95 95 WNW 5 7 30.12 1020 10 16 N/A
11:55 pm 23:55 Clear 35 1.4 33 0.4 93 93 WNW 5 7 30.12 1020 10 16 N/A

Powered by AerisWeather